Wind_Speed
11 11 12 12 13 13 13 12 13 12 12 12 12 12 12 11 11 10 10 11 11 11 11 11 11 11 11 11 11 10 10 9 8 8 7 6 6 5 5 5 4 4 4 4 5 6 6 6 6
11 11 11 12 13 13 13 13 13 13 13 13 13 13 12 11 11 11 10 10 9 10 11 11 11 11 12 12 11 10 10 9 9 9 8 7 6 6 5 5 5 4 4 5 5 6 6 6 6
10 10 10 11 12 13 13 13 14 14 13 13 13 13 12 11 11 10 9 8 8 9 10 10 10 11 11 12 11 11 11 10 9 9 8 7 7 6 5 5 5 4 4 5 5 6 6 6 6
10 10 10 11 12 12 13 14 14 14 14 13 13 13 12 11 10 10 10 9 8 9 9 9 10 10 11 11 11 11 11 11 10 9 8 8 7 6 5 4 3 4 4 4 5 5 6 6 5
10 10 10 11 12 12 12 13 13 14 14 13 13 13 12 11 10 10 10 10 9 9 9 9 10 10 10 10 11 11 10 10 10 9 8 7 7 7 5 3 4 4 4 4 4 5 5 6 6
10 10 11 11 12 13 13 13 13 14 14 14 13 13 12 11 10 10 10 10 10 9 9 9 9 10 10 10 10 10 10 10 10 10 9 8 8 8 7 5 6 6 5 5 5 5 6 6 6
11 11 12 12 12 13 13 13 14 14 14 14 13 13 12 11 10 10 10 10 10 9 9 9 9 10 10 10 10 9 9 9 9 10 9 9 9 9 8 8 7 6 6 5 4 4 4 4 4
10 11 11 12 12 13 13 13 14 14 14 13 13 13 12 11 11 10 10 10 10 10 10 10 10 10 10 10 10 10 10 9 9 9 9 9 10 9 9 9 8 8 7 6 5 5 5 5 4
10 11 11 11 12 12 12 13 14 13 13 13 12 13 12 12 11 11 11 11 11 12 12 11 11 11 11 11 10 10 10 9 9 9 9 9 9 9 9 10 9 8 7 7 6 5 6 6 5
9 11 11 11 11 12 12 13 13 13 13 12 12 12 12 12 12 12 11 12 12 12 12 12 12 12 12 12 10 10 10 9 9 9 9 8 8 8 8 9 8 7 7 6 5 5 5 5 5
9 9 9 10 10 11 12 13 13 13 12 12 12 11 11 11 12 12 11 11 12 12 13 13 13 12 12 12 11 10 9 9 9 9 9 8 8 8 7 7 7 6 6 5 4 5 5 5 5
8 7 8 9 9 10 11 12 13 12 12 12 11 11 11 11 11 12 11 11 11 12 12 12 11 11 11 10 10 10 9 8 9 9 8 8 7 7 7 7 7 7 6 5 4 4 4 4 4
6 7 7 8 9 9 10 11 11 12 12 12 11 11 10 10 11 11 11 10 11 11 11 11 10 10 10 9 8 8 9 9 8 9 8 9 8 7 7 7 7 6 6 5 4 3 3 4 3
4 6 6 6 8 8 9 9 10 11 11 11 11 10 10 10 9 10 10 10 10 10 10 10 10 10 10 10 10 9 9 9 8 9 9 9 9 9 7 7 6 6 5 4 4 3 3 3 2
4 5 4 5 6 7 7 8 9 10 10 11 10 10 10 9 9 9 10 10 10 10 9 9 9 9 9 9 9 9 9 10 10 9 9 9 9 9 8 7 7 6 6 4 4 3 4 3 2
5 5 4 3 4 4 5 6 7 8 9 9 9 9 9 8 9 9 8 9 9 9 8 8 8 8 8 8 7 7 8 8 9 9 9 8 8 8 7 6 7 7 7 6 5 4 4 4 3
5 4 3 2 1 1 2 4 6 6 7 7 7 8 8 7 8 8 7 8 8 8 7 7 7 7 7 7 6 6 6 6 7 7 7 7 6 6 6 5 5 6 6 5 6 4 4 4 4
7 6 4 3 2 1 1 3 4 5 5 5 6 6 7 7 7 7 6 6 7 7 6 6 6 6 6 6 5 5 5 5 5 5 6 5 5 5 4 4 4 4 4 4 4 4 4 4 3
9 8 7 5 5 2 1 2 3 4 3 3 4 5 5 6 6 5 5 5 5 5 5 4 4 4 4 4 4 4 4 4 4 4 4 4 3 3 4 3 3 3 2 2 2 2 2 2 3
10 9 8 7 6 5 3 3 3 3 3 2 2 3 4 4 5 4 4 4 4 4 3 3 3 3 3 3 3 3 4 4 4 3 3 3 3 3 3 3 2 2 2 2 2 2 2 2 2
11 9 8 8 8 7 6 4 4 4 3 3 2 2 2 4 4 3 3 3 4 4 3 3 3 3 3 3 3 3 4 4 4 4 4 4 4 3 3 3 3 2 2 2 2 3 3 3 3
10 10 8 7 8 8 8 6 4 5 4 5 5 3 3 4 4 3 3 4 4 4 3 3 4 4 4 3 4 4 4 4 4 4 4 4 4 4 4 4 4 4 4 4 4 5 5 4 4
10 10 9 9 9 9 9 8 6 7 7 7 6 5 5 5 5 5 5 5 5 5 5 4 4 4 4 4 4 4 4 5 5 5 5 5 5 5 5 6 6 6 6 6 6 6 6 6 6
12 11 10 10 10 10 9 9 8 9 8 8 7 7 6 6 6 6 7 7 6 6 5 5 4 4 5 5 5 5 6 6 6 6 7 7 6 7 7 7 7 8 8 8 8 8 8 8 9
13 12 12 12 12 12 11 11 10 10 10 9 9 8 7 7 8 8 8 8 8 8 7 6 6 6 7 7 7 7 7 8 8 8 8 9 8 9 9 9 9 10 10 10 10 10 11 11 11
13 13 13 13 14 13 13 12 11 11 10 10 10 9 9 9 9 9 9 9 9 9 8 8 8 8 9 9 9 9 9 10 10 10 10 11 11 12 12 12 12 12 12 12 12 13 13 14 14
15 15 14 14 13 14 14 13 11 11 10 11 10 10 10 10 10 10 10 11 11 11 11 10 10 11 11 10 10 10 11 12 12 12 12 13 13 14 14 14 15 15 15 15 15 15 15 15 15
18 17 16 16 16 16 15 13 13 12 12 12 12 12 12 12 12 12 12 12 12 13 13 13 12 12 12 12 12 12 13 13 14 14 14 15 16 16 16 16 16 16 17 18 18 17 17 17 16
20 19 19 19 19 18 17 15 14 14 14 14 14 14 14 14 14 14 14 14 14 14 14 15 15 15 14 14 14 14 15 15 16 16 16 17 17 17 17 17 17 18 18 19 19 18 18 18 17
22 21 21 21 20 20 19 17 16 16 16 16 16 15 15 16 16 15 15 15 16 16 16 16 16 16 15 15 16 16 17 16 17 16 16 17 18 17 17 18 18 19 19 20 20 19 19 19 19
Wind_Direction
97 91 86 81 78 75 69 64 59 55 54 52 50 48 48 47 46 49 51 50 50 49 50 50 52 53 52 50 53 54 57 64 80 87 85 80 78 74 89 98 107 109 118 128 148 154 151 159 167
95 94 89 83 78 73 70 66 60 57 56 53 49 47 47 47 47 47 48 50 52 50 49 49 53 52 50 49 49 53 55 63 75 84 85 80 74 73 87 99 105 110 124 124 137 147 150 157 164
92 91 89 81 78 71 67 66 62 57 55 53 50 48 47 48 48 48 49 49 49 49 48 49 53 52 50 49 50 54 58 63 71 78 79 77 74 76 83 97 110 122 131 138 143 149 158 166 169
92 94 87 82 77 72 68 66 64 59 55 52 50 48 46 45 45 47 49 48 46 49 48 48 50 51 52 52 55 58 61 66 71 71 74 75 72 75 75 86 109 126 139 147 157 157 168 176 175
91 93 88 82 75 73 70 67 64 59 53 49 47 46 44 42 42 45 46 44 46 51 53 50 51 49 54 56 57 57 63 67 69 69 68 67 69 69 65 98 132 130 133 150 157 169 180 189 188
88 89 90 83 76 72 70 67 63 57 52 47 45 45 43 41 40 42 42 44 48 54 54 50 51 52 58 61 63 61 65 69 71 70 67 64 64 60 62 93 125 125 130 144 154 160 172 177 179
91 89 87 82 76 70 68 68 63 58 53 48 44 45 44 42 39 39 41 46 49 56 54 52 54 57 59 64 66 64 64 67 71 71 68 67 69 69 71 85 105 116 120 125 136 142 139 135 155
93 88 87 81 77 70 67 66 63 57 53 48 45 45 44 42 43 45 49 54 52 54 57 58 59 60 61 64 67 69 69 72 72 71 68 70 73 72 74 83 95 106 114 108 107 113 109 113 128
92 87 83 77 75 71 69 67 63 57 53 49 46 46 45 44 49 52 54 56 54 55 60 62 62 61 60 64 68 72 73 73 73 75 73 73 74 75 79 83 90 100 106 101 98 102 102 115 125
96 88 82 76 74 72 71 68 63 58 53 47 45 46 47 48 53 54 54 56 57 57 58 62 64 61 60 64 70 72 72 74 73 76 73 73 75 80 79 81 85 91 97 97 92 102 105 115 124
104 94 82 81 77 72 70 65 60 57 55 49 45 46 51 55 56 55 55 57 60 59 58 61 63 61 59 60 65 70 71 75 76 76 76 77 79 83 84 84 84 87 89 92 89 95 109 107 111
105 93 84 83 81 77 71 62 57 54 53 49 46 47 51 56 57 54 56 58 59 59 58 59 58 58 58 60 62 64 68 76 75 77 79 82 84 86 92 90 85 82 84 87 89 97 106 105 98
112 101 90 89 82 78 71 61 55 50 48 48 47 50 53 53 56 56 56 56 57 57 56 57 59 60 59 60 62 63 62 68 70 71 75 76 83 89 89 90 81 75 82 82 76 86 93 92 88
125 112 105 97 84 77 69 58 54 51 46 47 48 52 55 53 57 57 55 53 55 55 53 54 58 60 60 62 62 61 60 66 72 72 71 72 73 69 69 70 67 62 64 65 67 75 78 70 67
154 142 132 108 90 79 68 57 47 46 42 43 46 49 52 48 48 47 51 53 51 53 54 55 57 58 57 58 59 58 59 63 63 65 72 72 73 72 70 67 64 57 57 51 49 60 55 52 49
188 177 163 134 100 82 64 52 42 35 37 40 43 46 47 46 42 43 48 48 45 48 53 54 52 54 55 55 55 56 59 59 55 57 64 67 66 64 65 65 62 57 53 51 55 58 51 45 41
201 199 192 178 113 73 37 34 36 28 30 37 40 42 44 47 41 44 48 46 45 44 46 49 49 49 49 48 50 51 54 53 50 53 56 58 57 54 55 55 54 51 54 57 59 56 50 47 41
212 217 228 235 244 300 15 23 27 18 23 34 42 40 40 40 39 41 44 43 42 41 42 44 44 43 38 38 44 50 50 49 49 51 52 48 51 46 42 42 45 49 50 44 40 41 40 40 33
224 232 234 242 245 254 295 356 7 3 7 35 39 33 34 35 30 31 33 34 34 32 33 34 35 37 37 33 34 36 31 34 41 41 36 31 33 30 22 23 35 35 33 30 22 25 27 27 12
228 230 234 240 246 254 280 302 325 325 338 352 13 12 10 16 9 22 26 20 17 17 10 3 7 8 20 23 16 13 13 16 13 10 3 4 5 359 2 13 14 8 6 1 358 2 5 5 352
230 236 241 249 255 259 271 283 296 304 313 314 315 332 351 357 354 5 4 359 358 3 357 344 344 352 1 2 359 351 348 349 348 352 348 342 337 340 342 340 331 320 317 329 334 327 324 316 321
237 240 243 251 256 264 267 276 287 297 295 290 298 304 319 320 321 316 312 313 323 333 336 340 347 349 348 344 332 326 328 331 331 332 334 328 319 316 320 316 309 300 293 294 300 305 306 303 299
231 239 245 248 256 266 269 272 282 286 285 287 289 289 299 296 296 293 297 297 298 307 314 317 314 317 318 317 311 309 309 312 313 311 312 312 305 302 299 299 298 293 289 286 286 288 293 293 292
234 240 244 250 259 266 274 276 279 283 281 283 286 287 290 287 282 285 291 295 294 295 301 304 296 301 305 306 301 297 294 295 298 299 299 302 301 298 292 291 292 291 287 285 283 280 283 287 288
237 240 247 252 260 268 276 276 279 281 281 285 285 286 284 282 283 284 286 289 289 286 293 297 290 291 294 296 295 294 292 289 292 292 290 290 292 293 290 287 286 287 286 283 280 277 278 283 286
236 241 249 257 263 265 272 277 279 282 282 285 285 285 281 280 282 282 281 281 283 283 285 284 285 286 287 287 289 292 290 288 289 288 286 286 287 289 288 285 283 284 285 283 280 278 278 280 283
237 244 250 257 262 266 271 278 285 286 283 284 282 281 281 280 280 279 276 278 282 282 283 282 280 280 281 281 284 289 289 288 287 284 284 284 283 283 284 283 283 284 282 280 280 280 280 282 283
238 244 250 259 266 269 271 279 285 286 290 289 282 279 279 278 278 279 279 280 283 283 283 281 278 277 278 279 280 282 286 289 288 286 284 284 282 285 283 282 282 283 282 280 279 281 279 279 281
243 246 250 258 265 269 272 278 286 289 288 293 291 282 276 278 279 280 278 278 283 284 282 279 279 282 280 278 281 286 288 287 288 287 284 286 284 284 284 283 283 282 282 282 280 281 281 280 280
242 248 253 257 263 269 274 279 284 288 289 290 290 287 281 279 277 279 280 280 281 284 284 282 280 281 280 280 283 288 292 288 289 289 286 285 286 286 287 289 288 289 288 284 281 281 281 279 279
Height
5886 5886 5886 5887 5887 5886 5884 5884 5883 5882 5882 5881 5880 5879 5878 5878 5878 5878 5875 5873 5872 5871 5870 5868 5867 5866 5865 5863 5861 5859 5857 5856 5856 5858 5859 5860 5861 5861 5861 5861 5861 5862 5863 5864 5864 5866 5868 5870 5872
5888 5888 5889 5888 5887 5886 5886 5885 5885 5884 5883 5882 5881 5880 5879 5878 5878 5877 5875 5874 5873 5872 5871 5869 5868 5867 5865 5864 5862 5860 5859 5857 5858 5859 5860 5861 5862 5862 5862 5862 5862 5863 5863 5864 5865 5867 5869 5870 5872
5889 5889 5890 5889 5888 5888 5888 5887 5886 5885 5884 5883 5882 5881 5881 5880 5879 5877 5876 5875 5874 5873 5872 5870 5869 5868 5867 5865 5863 5862 5861 5860 5860 5861 5862 5862 5862 5862 5862 5862 5863 5863 5864 5865 5866 5867 5869 5871 5872
5891 5892 5892 5891 5889 5889 5889 5888 5887 5886 5885 5884 5884 5883 5882 5881 5880 5879 5877 5876 5875 5874 5873 5871 5870 5869 5868 5866 5865 5864 5864 5863 5862 5863 5863 5863 5863 5862 5861 5861 5862 5863 5864 5865 5866 5867 5869 5870 5872
5892 5893 5893 5891 5891 5891 5890 5889 5889 5887 5887 5886 5885 5884 5883 5882 5881 5879 5878 5877 5876 5875 5873 5872 5871 5870 5869 5868 5867 5866 5866 5865 5865 5865 5865 5864 5863 5862 5860 5859 5861 5863 5864 5865 5866 5866 5868 5870 5871
5894 5894 5894 5893 5893 5892 5891 5891 5890 5889 5888 5887 5887 5886 5884 5883 5882 5880 5879 5878 5877 5876 5874 5873 5872 5871 5870 5869 5868 5868 5868 5867 5867 5866 5866 5865 5864 5862 5859 5856 5859 5862 5864 5866 5867 5867 5868 5869 5870
5896 5895 5894 5894 5894 5893 5893 5892 5891 5891 5890 5889 5888 5887 5886 5885 5883 5882 5880 5879 5878 5877 5876 5874 5873 5872 5871 5870 5870 5870 5869 5869 5868 5868 5868 5867 5866 5864 5861 5859 5860 5862 5865 5867 5868 5868 5869 5869 5869
5897 5898 5896 5896 5895 5895 5895 5894 5893 5892 5891 5891 5890 5888 5887 5886 5885 5883 5882 5881 5879 5878 5877 5876 5874 5873 5872 5872 5871 5871 5871 5870 5870 5870 5869 5868 5867 5866 5864 5863 5863 5865 5867 5868 5869 5869 5869 5870 5871
5899 5900 5898 5898 5897 5897 5896 5895 5895 5894 5893 5892 5891 5889 5889 5887 5886 5885 5883 5882 5881 5880 5879 5877 5876 5875 5874 5873 5873 5873 5872 5872 5872 5871 5871 5870 5869 5869 5868 5867 5867 5868 5869 5870 5871 5871 5871 5872 5873
5901 5900 5900 5899 5899 5898 5898 5897 5897 5896 5894 5894 5892 5891 5890 5888 5888 5886 5885 5884 5883 5882 5881 5879 5878 5877 5876 5875 5874 5874 5874 5874 5873 5873 5873 5872 5872 5871 5871 5871 5870 5871 5871 5872 5873 5873 5873 5874 5874
5901 5901 5901 5900 5900 5900 5899 5899 5898 5897 5896 5895 5894 5892 5891 5890 5889 5888 5887 5886 5885 5884 5882 5881 5880 5879 5878 5878 5877 5876 5876 5875 5875 5875 5875 5874 5874 5873 5873 5873 5873 5873 5873 5874 5874 5875 5875 5875 5876
5902 5902 5902 5902 5902 5901 5901 5900 5900 5899 5898 5897 5895 5894 5893 5892 5891 5890 5889 5888 5887 5886 5885 5883 5882 5881 5881 5880 5879 5878 5878 5877 5877 5877 5877 5876 5876 5875 5874 5874 5875 5875 5875 5875 5875 5876 5876 5876 5876
5903 5903 5903 5903 5903 5903 5902 5902 5901 5900 5899 5898 5897 5895 5895 5894 5893 5892 5891 5890 5889 5888 5887 5885 5884 5884 5883 5882 5881 5880 5879 5879 5879 5879 5878 5878 5877 5876 5876 5876 5876 5876 5876 5876 5876 5876 5877 5877 5878
5904 5904 5905 5905 5904 5904 5903 5903 5903 5902 5901 5900 5899 5897 5896 5896 5895 5894 5893 5892 5891 5890 5889 5888 5887 5886 5885 5884 5883 5882 5882 5881 5881 5880 5880 5879 5879 5878 5878 5878 5878 5878 5877 5877 5877 5877 5877 5878 5878
5905 5906 5906 5906 5905 5905 5905 5905 5904 5903 5902 5901 5900 5899 5898 5897 5896 5895 5894 5893 5892 5891 5890 5890 5889 5888 5887 5886 5885 5884 5884 5883 5883 5882 5881 5881 5881 5880 5880 5880 5879 5879 5878 5878 5878 5878 5878 5878 5878
5905 5906 5907 5907 5906 5905 5907 5906 5905 5904 5903 5902 5901 5900 5899 5898 5897 5896 5895 5894 5894 5893 5892 5891 5890 5890 5889 5888 5887 5886 5885 5885 5884 5884 5883 5883 5882 5882 5881 5881 5880 5880 5880 5879 5879 5879 5879 5879 5879
5905 5906 5906 5907 5906 5906 5906 5906 5905 5905 5904 5903 5902 5901 5900 5899 5898 5897 5896 5896 5895 5894 5893 5892 5892 5891 5890 5889 5888 5888 5887 5886 5885 5885 5884 5884 5883 5883 5883 5882 5881 5881 5881 5880 5880 5880 5879 5879 5879
5905 5906 5906 5906 5906 5906 5905 5906 5905 5905 5904 5904 5903 5902 5901 5900 5899 5898 5897 5896 5896 5895 5894 5893 5892 5892 5891 5891 5890 5889 5888 5887 5886 5886 5885 5885 5884 5883 5883 5882 5882 5881 5881 5881 5880 5880 5879 5879 5879
5904 5905 5906 5906 5906 5906 5906 5906 5905 5905 5905 5904 5903 5903 5901 5900 5899 5898 5897 5897 5896 5895 5894 5893 5893 5892 5891 5891 5890 5889 5888 5888 5887 5886 5886 5885 5884 5884 5883 5882 5882 5882 5881 5881 5880 5880 5879 5879 5879
5904 5904 5905 5906 5905 5905 5905 5905 5905 5905 5905 5904 5904 5903 5902 5901 5900 5899 5898 5897 5896 5895 5894 5894 5893 5892 5891 5891 5890 5889 5889 5888 5887 5886 5885 5885 5884 5884 5883 5882 5882 5881 5881 5880 5880 5880 5879 5879 5879
5902 5903 5904 5905 5905 5905 5905 5905 5905 5905 5904 5904 5903 5903 5902 5901 5900 5899 5898 5897 5896 5895 5894 5894 5893 5892 5891 5891 5890 5889 5888 5887 5887 5886 5885 5885 5884 5883 5883 5882 5882 5881 5880 5880 5879 5879 5878 5878 5878
5901 5902 5902 5903 5904 5904 5905 5904 5905 5904 5904 5903 5903 5902 5901 5900 5899 5898 5898 5897 5896 5895 5894 5893 5893 5892 5891 5890 5889 5889 5888 5887 5886 5885 5885 5884 5883 5882 5882 5881 5881 5880 5880 5879 5878 5877 5877 5876 5876
5900 5900 5901 5901 5902 5903 5903 5903 5904 5903 5902 5902 5901 5901 5900 5899 5898 5897 5897 5896 5895 5894 5893 5892 5892 5891 5890 5889 5889 5888 5887 5886 5885 5884 5884 5883 5882 5881 5881 5880 5880 5879 5878 5877 5877 5876 5875 5874 5874
5898 5899 5899 5900 5900 5901 5901 5901 5902 5901 5901 5900 5900 5899 5899 5898 5897 5896 5895 5894 5894 5893 5892 5891 5890 5890 5889 5888 5887 5886 5885 5885 5884 5883 5882 5881 5880 5880 5879 5878 5878 5877 5876 5875 5874 5874 5873 5872 5871
5896 5898 5898 5898 5898 5899 5899 5899 5900 5900 5899 5899 5898 5898 5897 5896 5895 5894 5893 5893 5892 5891 5890 5889 5888 5888 5887 5886 5885 5884 5883 5883 5882 5881 5880 5879 5879 5878 5877 5876 5875 5874 5874 5873 5872 5871 5870 5870 5869
5893 5895 5896 5896 5896 5897 5897 5896 5898 5898 5897 5896 5896 5896 5895 5894 5893 5892 5892 5891 5890 5889 5888 5887 5886 5885 5885 5884 5883 5882 5881 5880 5879 5878 5878 5877 5876 5875 5874 5873 5872 5872 5871 5870 5869 5868 5867 5866 5865
5891 5892 5893 5894 5894 5894 5894 5895 5895 5895 5895 5894 5894 5893 5893 5892 5891 5890 5889 5889 5888 5887 5886 5885 5884 5883 5882 5881 5880 5879 5878 5877 5876 5875 5874 5874 5873 5872 5871 5870 5869 5868 5867 5866 5865 5864 5863 5862 5861
5888 5889 5890 5891 5891 5891 5891 5892 5893 5892 5892 5892 5891 5891 5890 5889 5889 5888 5887 5886 5885 5884 5883 5882 5881 5880 5879 5878 5877 5876 5875 5874 5873 5872 5871 5870 5869 5869 5868 5866 5865 5864 5863 5862 5861 5860 5859 5858 5857
5884 5886 5886 5887 5888 5888 5888 5891 5890 5889 5889 5888 5888 5887 5887 5886 5885 5884 5883 5883 5882 5881 5879 5878 5877 5876 5875 5874 5873 5872 5871 5870 5869 5867 5867 5865 5865 5864 5863 5862 5861 5859 5858 5857 5856 5855 5854 5853 5852
5880 5882 5883 5884 5884 5884 5884 5888 5886 5885 5885 5885 5884 5883 5883 5882 5881 5881 5880 5879 5878 5877 5876 5874 5873 5872 5871 5870 5869 5868 5867 5865 5864 5863 5862 5861 5860 5859 5858 5857 5856 5854 5853 5852 5851 5850 5848 5847 5846